[[{"header":{"parameterUnit":"m.s-1","parameterCategory":1,"la1":30.2991,"la2":30.254,"lo1":-89.0895,"lo2":-89.0444,"dy":0.0017,"dx":0.0017,"nx":28,"ny":28,"refTime":"2025-12-25T03:00:00:Z","depth":0,"parameterNumber":2,"parameterNumberName":"U-component_of_WINDS"},"data":[0,0,0,0,0,0,0,0,0,0,0,0,0,0,0,0,0,0,0,0,0,0,0,0,0,0,0,0,0,0,0,0,0,0,0,0,0,0,0,0,0,0,0,0,0,0,0,0,0,0,0,0,0,0,0,0,0,0,0.7612,0.7613,0,0.7715,0.7716,0.7717,0.776,0.776,0.776,0.7759,0.787,0.7874,0.7877,0,0,0,0,0,0,0,0,0,0,0,0,0,0.7462,0.7464,0.7612,0.7614,0.7615,0.7715,0.7716,0.7717,0.776,0.776,0.776,0.7759,0.7869,0.7873,0.7877,0,0,0,0,0,0,0,0,0,0,0,0,0,0.7542,0.7465,0.7612,0.7648,0.7652,0.7714,0.7716,0.7718,0.776,0.776,0.776,0.7759,0.7868,0.7873,0.7877,0.7913,0,0,0.7892,0.7894,0,0,0,0,0,0,0,0,0.7537,0.7547,0.7641,0.7646,0.7651,0.7724,0.7704,0.7784,0.776,0.7719,0.7759,0.7759,0.7823,0.7831,0.7851,0.7918,0.7923,0.7892,0.7895,0.7897,0.7899,0,0,0,0,0,0,0,0.7532,0.7543,0.7653,0.7643,0.7648,0.7662,0.7673,0.7719,0.7772,0.7723,0.7726,0.7738,0.7825,0.7846,0.7854,0.7925,0.7892,0.7896,0.7899,0.7901,0.8031,0.8032,0,0,0,0,0,0,0.7519,0.7538,0.765,0.7656,0.7592,0.7665,0.7677,0.7701,0.7771,0.7782,0.7738,0.7739,0.7838,0.7848,0.7858,0.7907,0.7897,0.7902,0.7904,0.8031,0.8031,0.8032,0,0,0,0,0,0,0.7516,0.7529,0.7646,0.7598,0.7614,0.7668,0.7694,0.7703,0.7725,0.7782,0.7793,0.7749,0.7839,0.7851,0.79,0.7911,0.7904,0.7908,0.803,0.8031,0.8032,0.8004,0,0,0,0,0,0,0.7511,0.7527,0.7539,0.7598,0.7616,0.7683,0.7695,0.7705,0.7732,0.7735,0.7796,0.7806,0.7839,0.7892,0.7904,0.7918,0.7912,0.8029,0.803,0.8031,0.8004,0.8003,0.8003,0,0,0,0,0,0.7506,0.7528,0.7539,0.7553,0.7632,0.7683,0.7694,0.773,0.7733,0.7747,0.7785,0.7804,0.7908,0.7897,0.7911,0.7926,0.8029,0.803,0.8031,0.8004,0.8003,0.8003,0,0,0,0,0,0,0.747,0.7536,0.755,0.7591,0.7631,0.769,0.7709,0.7728,0.777,0.7771,0.7816,0.783,0.7875,0.7906,0.7892,0.7966,0.797,0.7974,0.7945,0.7945,0.7944,0.7937,0.7916,0,0,0,0,0,0.7467,0.75,0.7557,0.7588,0.7608,0.7655,0.7678,0.7703,0.7747,0.7765,0.7806,0.785,0.7893,0.7921,0.7963,0.8008,0.8024,0.8026,0.8026,0.8025,0.8029,0.8058,0.8061,0.8037,0.8037,0.8037,0,0,0.746,0.7501,0.7519,0.7582,0.7616,0.7653,0.7669,0.7706,0.7735,0.7771,0.7819,0.7851,0.7904,0.7952,0.7975,0.7978,0.8039,0.8027,0.8026,0.803,0.806,0.8062,0.8064,0.8037,0.8037,0.8037,0,0,0.7468,0.7501,0.7532,0.7566,0.7617,0.7648,0.7656,0.7713,0.7735,0.7784,0.7813,0.7849,0.7921,0.7959,0.7987,0.8012,0.8033,0.8025,0.8024,0.8053,0.8055,0.8057,0.8068,0.8071,0.8028,0.8028,0.8028,0,0.7455,0.7509,0.7545,0.7582,0.761,0.7644,0.7677,0.7709,0.7772,0.7793,0.7795,0.7889,0.7926,0.7985,0.7991,0.8012,0.8025,0.8019,0.8051,0.8053,0.8056,0.8067,0.8071,0.8027,0.8027,0.8027,0.8028,0,0.7491,0.7529,0.7548,0.7607,0.7637,0.7672,0.7717,0.7744,0.7767,0.7799,0.7851,0.7897,0.7951,0.7967,0.799,0.803,0.8031,0.8042,0.8047,0.8056,0.8068,0.8073,0.8026,0.8026,0.8026,0.8027,0,0,0.7478,0.7558,0.7565,0.7593,0.7653,0.7685,0.7723,0.7774,0.7798,0.7841,0.7876,0.7938,0.7949,0.7982,0.801,0.8034,0.8055,0.8043,0.8045,0.8045,0.8106,0.8098,0.8102,0.8069,0.807,0.8071,0.8102,0,0.7495,0.7562,0.7598,0.7651,0.7688,0.7722,0.7756,0.7799,0.7831,0.787,0.7906,0.795,0.796,0.798,0.8006,0.8047,0.8068,0.8045,0.8105,0.8107,0.8092,0.8108,0.81,0.8127,0.8107,0.8108,0.8108,0,0.7523,0.7565,0.7622,0.7681,0.7698,0.7727,0.7779,0.7814,0.7865,0.7887,0.7924,0.7952,0.7997,0.7999,0.8064,0.8047,0.8074,0.8098,0.8101,0.8108,0.8109,0.8118,0.8136,0.8141,0.8115,0.8115,0.8114,0,0.751,0.7581,0.7625,0.7648,0.7717,0.7738,0.7768,0.7818,0.7848,0.7894,0.7915,0.7966,0.7995,0.8036,0.8078,0.8075,0.814,0.8144,0.8162,0.8161,0.8175,0.8174,0.8199,0.819,0.819,0.819,0.819,0,0.7526,0.756,0.7621,0.7648,0.7688,0.7731,0.777,0.7804,0.7848,0.7885,0.7918,0.7953,0.8006,0.8048,0.8082,0.8132,0.8145,0.8166,0.8175,0.8164,0.8161,0.8183,0.8183,0.8191,0.8191,0.8191,0.819,0,0.7518,0.756,0.761,0.7672,0.7689,0.7716,0.777,0.78,0.7835,0.7881,0.7894,0.795,0.8001,0.8047,0.8116,0.8139,0.8191,0.8201,0.8173,0.8179,0.8195,0.8193,0.8236,0.8245,0.8228,0.8228,0.8228,0,0.7526,0.7553,0.7618,0.7644,0.7673,0.7715,0.7746,0.779,0.7821,0.7883,0.7906,0.7959,0.8004,0.8086,0.8134,0.8188,0.8201,0.8212,0.8209,0.8198,0.8204,0.8202,0.8206,0.8212,0.8212,0.8212,0.8212,0,0.7536,0.7556,0.7598,0.7648,0.7683,0.7725,0.7768,0.7789,0.7842,0.7876,0.7928,0.7963,0.8034,0.8088,0.8148,0.8182,0.8207,0.8212,0.822,0.8209,0.8193,0.8204,0.8174,0.8211,0.8211,0.8211,0.8211,0.8211,0.7538,0.7564,0.7615,0.7662,0.7699,0.7739,0.7771,0.781,0.7853,0.7913,0.7937,0.7992,0.8046,0.8128,0.8163,0.8208,0.8213,0.8223,0.8226,0.8228,0.8227,0.8184,0.8219,0.8219,0.8219,0.8219,0.8219,0,0.7551,0.7586,0.7628,0.7688,0.7726,0.7744,0.7794,0.7825,0.7871,0.7919,0.7963,0.8025,0.8079,0.8132,0.8189,0.8216,0.8229,0.8229,0.8229,0.8237,0.8218,0.8207,0.8218,0.8218,0.8218,0.8218,0.8218,0.8218,0.7563,0.761,0.7636,0.7704,0.7739,0.7791,0.7818,0.7857,0.7896,0.7963,0.8007,0.8041,0.8092,0.8154,0.8205,0.822,0.824,0.8238,0.8256,0.8238,0.8238,0.8237,0.8227,0.8242,0.8242,0.8271,0.8272,0.8272]},{"header":{"parameterUnit":"m.s-1","parameterCategory":1,"la1":30.2991,"la2":30.254,"lo1":-89.0895,"lo2":-89.0444,"dy":0.0017,"dx":0.0017,"nx":28,"ny":28,"refTime":"2025-12-25T03:00:00:Z","depth":0,"parameterNumber":3,"parameterNumberName":"V-component_of_WINDS"},"data":[0,0,0,0,0,0,0,0,0,0,0,0,0,0,0,0,0,0,0,0,0,0,0,0,0,0,0,0,0,0,0,0,0,0,0,0,0,0,0,0,0,0,0,0,0,0,0,0,0,0,0,0,0,0,0,0,0,0,2.6393,2.6394,0,2.6454,2.6455,2.6456,2.6478,2.6478,2.6477,2.6477,2.6539,2.654,2.6542,0,0,0,0,0,0,0,0,0,0,0,0,0,2.6295,2.6297,2.6393,2.6394,2.6395,2.6454,2.6455,2.6456,2.6478,2.6478,2.6477,2.6477,2.6538,2.654,2.6542,0,0,0,0,0,0,0,0,0,0,0,0,0,2.6345,2.6298,2.6393,2.6413,2.6415,2.6454,2.6455,2.6456,2.6478,2.6478,2.6477,2.6477,2.6537,2.654,2.6543,2.6566,0,0,2.6551,2.6552,0,0,0,0,0,0,0,0,2.6342,2.6349,2.6409,2.6411,2.6414,2.6458,2.6443,2.6493,2.6478,2.6454,2.6477,2.6477,2.6512,2.6517,2.6529,2.6569,2.6572,2.6551,2.6553,2.6554,2.6555,0,0,0,0,0,0,0,2.6339,2.6346,2.6417,2.641,2.6413,2.6419,2.6425,2.6453,2.6484,2.6456,2.6458,2.6465,2.6513,2.6526,2.6531,2.6572,2.6551,2.6554,2.6555,2.6557,2.6637,2.6638,0,0,0,0,0,0,2.6332,2.6343,2.6415,2.6419,2.6377,2.6421,2.6428,2.6444,2.6484,2.649,2.6465,2.6466,2.6522,2.6527,2.6533,2.6565,2.6554,2.6557,2.6558,2.6637,2.6637,2.6638,0,0,0,0,0,0,2.633,2.6338,2.6413,2.6382,2.6392,2.6423,2.6441,2.6446,2.6459,2.6491,2.6496,2.6473,2.6522,2.6529,2.6558,2.6567,2.6558,2.6561,2.6636,2.6637,2.6638,2.6627,0,0,0,0,0,0,2.6327,2.6337,2.6346,2.6382,2.6393,2.6437,2.6441,2.6447,2.6464,2.6465,2.6499,2.6504,2.6522,2.6554,2.6561,2.6571,2.6563,2.6636,2.6636,2.6637,2.6627,2.6627,2.6628,0,0,0,0,0,2.6323,2.634,2.6347,2.6355,2.6405,2.6437,2.6444,2.6464,2.6464,2.6474,2.6495,2.6503,2.6565,2.6557,2.6565,2.6575,2.6635,2.6636,2.6637,2.6627,2.6627,2.6628,0,0,0,0,0,0,2.6304,2.6345,2.6353,2.6381,2.6406,2.6441,2.6454,2.6464,2.6489,2.6489,2.6513,2.652,2.6548,2.6565,2.6555,2.6601,2.6601,2.6603,2.659,2.6591,2.6591,2.6587,2.6565,0,0,0,0,0,2.6303,2.6326,2.6361,2.6383,2.6395,2.6422,2.6437,2.6451,2.6477,2.6487,2.651,2.6535,2.656,2.6576,2.6601,2.6629,2.6638,2.6641,2.6641,2.6641,2.6644,2.6662,2.6665,2.6641,2.6641,2.6641,0,0,2.6301,2.6327,2.6339,2.6379,2.64,2.6424,2.6431,2.6455,2.6473,2.6491,2.6521,2.6538,2.6568,2.6597,2.6611,2.6612,2.6652,2.6643,2.6643,2.6645,2.6664,2.6666,2.6668,2.6642,2.6642,2.6642,0,0,2.631,2.6331,2.6353,2.6374,2.6406,2.6424,2.6429,2.6464,2.6477,2.6507,2.6522,2.6543,2.6586,2.6607,2.6623,2.6643,2.6653,2.665,2.6653,2.6671,2.6673,2.6675,2.6683,2.6686,2.6652,2.6652,2.6652,0,2.6304,2.6341,2.6362,2.6387,2.6405,2.6423,2.6446,2.6465,2.6503,2.6515,2.6515,2.657,2.6591,2.6627,2.6632,2.6644,2.6652,2.6647,2.6671,2.6673,2.6675,2.6684,2.6687,2.6652,2.6652,2.6652,2.6652,0,2.6332,2.6357,2.6371,2.6409,2.6428,2.6451,2.6477,2.6494,2.6507,2.6526,2.6557,2.6584,2.6615,2.6624,2.6636,2.6663,2.6662,2.6666,2.6666,2.6676,2.6685,2.6688,2.6651,2.6651,2.6651,2.6651,0,0,2.6329,2.6381,2.6386,2.6404,2.6441,2.6461,2.6486,2.6518,2.6533,2.6559,2.6581,2.6618,2.6622,2.6641,2.6655,2.6671,2.6687,2.6673,2.6674,2.6676,2.6721,2.6719,2.6722,2.6694,2.6694,2.6695,2.6719,0,2.6345,2.6391,2.6412,2.6449,2.6473,2.6492,2.6514,2.654,2.6558,2.6582,2.6602,2.6629,2.6632,2.6644,2.666,2.6682,2.6697,2.668,2.6716,2.6717,2.6709,2.6726,2.6724,2.6745,2.6722,2.6723,2.6723,0,2.6368,2.6396,2.6435,2.6472,2.6483,2.6502,2.6535,2.6557,2.6587,2.66,2.6622,2.6636,2.6664,2.6661,2.6701,2.6689,2.6705,2.6718,2.672,2.6725,2.6721,2.6733,2.6752,2.6756,2.6728,2.6728,2.6728,0,2.6364,2.6411,2.6442,2.6457,2.65,2.6513,2.6532,2.6562,2.658,2.6608,2.6621,2.6651,2.6668,2.6692,2.6714,2.671,2.6752,2.6751,2.6765,2.6764,2.6773,2.6773,2.6796,2.6781,2.6781,2.6781,2.6781,0,2.638,2.6403,2.6441,2.646,2.6487,2.6512,2.6539,2.6559,2.6586,2.661,2.6627,2.6649,2.6677,2.6702,2.672,2.6751,2.6758,2.677,2.6775,2.6769,2.6768,2.6781,2.678,2.6782,2.6782,2.6781,2.6781,0,2.638,2.6406,2.6441,2.648,2.649,2.6509,2.6543,2.6562,2.6582,2.6612,2.662,2.6652,2.6683,2.6708,2.6748,2.676,2.6794,2.6798,2.6784,2.6787,2.68,2.6799,2.6833,2.684,2.6819,2.6819,2.6819,0,2.6389,2.6408,2.645,2.6467,2.6486,2.6513,2.6533,2.6559,2.6579,2.6616,2.6631,2.6664,2.6692,2.6741,2.6768,2.6799,2.6805,2.6815,2.681,2.6805,2.6808,2.6807,2.681,2.6816,2.6816,2.6816,2.6816,0,2.6401,2.6414,2.6442,2.6476,2.6499,2.6526,2.6554,2.6567,2.6598,2.662,2.6653,2.6674,2.6717,2.675,2.6784,2.6804,2.6816,2.6818,2.6823,2.6818,2.681,2.6817,2.6787,2.6817,2.6817,2.6817,2.6817,2.6817,2.6407,2.6426,2.646,2.6491,2.6515,2.6541,2.6562,2.6586,2.6614,2.6651,2.6665,2.6699,2.6731,2.6779,2.6799,2.6827,2.6828,2.6834,2.6837,2.6838,2.6839,2.6805,2.6833,2.6833,2.6833,2.6833,2.6833,0,2.6423,2.6446,2.6474,2.6514,2.6539,2.6549,2.6581,2.6601,2.6631,2.666,2.6688,2.6727,2.676,2.679,2.6824,2.6841,2.6847,2.6849,2.6849,2.6854,2.6835,2.6828,2.6843,2.6843,2.6843,2.6843,2.6843,2.6843,2.6434,2.6467,2.6484,2.653,2.6553,2.6588,2.6605,2.663,2.6654,2.6697,2.6725,2.6745,2.6775,2.6812,2.6843,2.6851,2.6864,2.6864,2.6874,2.6856,2.6854,2.6853,2.6847,2.6866,2.6866,2.6891,2.6891,2.6891]}]]